カタログに戻る

STARLINK-3635

運用中通信VLEO
NORAD 51981·PAYLOAD·🇺🇸 United States

打ち上げ Mar 9, 2022 から Cape Canaveral Space Force Station

Loading…

次のパス (今後24時間)

TLE

最新Source: CelesTrak SupGP

元期: Sep 14, 2026, 21:42 UTC

1 51981C 22025AB  26257.90465278  .00025856  00000+0  73973-3 0  2572
2 51981  53.1578 261.6496 0001219  88.8112 351.7288 15.35387031    11

AllMySatでSTARLINK-3635をリアルタイム追跡

Download on the App Store